GJZ 05

导读

GJZ 05是中国于北京时间2024年12月12日08时成功发射的人造卫星,国际标识为2024-238E,目前已在轨运行超190天,状态稳定。该卫星轨道近地点约963公里、远地点约999公里,轨道倾角约59.91度,绕行地球一周周期约104.7分钟,每日绕地球运行约13.75圈,服务我国相关空间探测与应用领域。

Basic Information
目录编号:
62294
目录名称:
GJZ 05
国际标识:
2024-238E
轨道中心:
EARTH
卫星名称:
GJZ 05
卫星全名:
GJZ 05
卫星状态:
在轨 (已飞行549 天)
发射日期:
2024-12-12 UTC
国别 :
中国 (CN)
星等 :
--
Orbit Information
数据来源 国际轨道数据 AOE轨道数据
星历时间 2026-06-14T22:00:15+0800
8小时前
查看轨道信息
2026-06-12T08:00:00+0800
2天前
查看轨道信息
半长轴 7359.129km 7359.134km
偏心率 0.0015582 0.0015558
轨道倾角 59.912° 59.913°
近地点辐角 11.559° 9.336°
升交点赤经 278.859° 286.679°
平近点角 348.577° 158.644°
近地点 969.525km 969.547km
远地点 992.459km 992.447km
周期 104.713分钟 104.713分钟
每日圈数 13.751915 13.751902
Detailed Information
使用方式:
暂无
2D Orbit Map
3D Orbit Map
Orbit Altitude Analysis Chart
Orbit Inclination Analysis Chart
Orbit Comprehensive Analysis Chart
View Comprehensive Chart